Погода в Лычково

Россия / Новгородская область     57°54′57″N   32°24′19″E
темп.,
°C
ветер,
м/с
пор.,
м/с
влажн.,
%
обл.,
%
осадки,
мм/ч
давл.,
гПа
погр.,
м
9 марта, вт
вт900:00−14ссз249721 0.0 1015133
03:00−15с239738 0.0 1017101
06:00−15с249695 0.1 1018223
09:00−16с258984 0.1 1020298
12:00−12с236839 0.0 1021606
15:00−10с236520 0.0 1021729
18:00−12с24790 0.0 1022174
21:00−15всв259039 0.0 1024149
10 марта, ср
ср1000:00−17в369192 0.0 1025216
03:00−18в379173 0.0 1026243
06:00−20в37890 0.0 1027251
09:00−19в36820 0.0 1029260
12:00−13в36640 0.0 1030513
15:00−11в35600 0.0 1030707
18:00−12в23760 0.0 103080
21:00−15вюв22860 0.0 103131
11 марта, чт
чт1100:00−17юв22840 0.0 103232
03:00−17юв22830 0.0 103264
06:00−18ююв25840 0.0 1031127
09:00−15ююв36710 0.0 1031256
12:00−10ю47580 0.0 1029526
15:00−7ю48550 0.0 1027742
18:00−8ююв39690 0.0 1025479
21:00−11ю411780 0.0 1025403
12 марта, пт
пт1200:00−12ю411850 0.0 1023399
03:00−12ю411860 0.0 1022417
06:00−12ююв514830 0.0 1019459
09:00−10ю614680 0.0 1017625
12:00−5ююв613590 0.0 1014769
15:00−3ююв7146343 0.0 1012941
18:00−4ю71587100 0.3 10101295
21:00−4ю61490100 1.0 10091180
13 марта, сб
сб1300:00−4ю61393100 0.4 1008960
03:00−4ю51292100 0.9 1008754
06:00−4ю51193100 0.4 1007592
09:00−4ю41093100 0.8 1008460
12:000ю488898 0.2 1008463
15:00+2ююз379298 0.2 1008585
18:00+2ю4108899 0.0 1007510
21:00+1ю4118998 0.1 1007695